"Time","Temp","Dewpoint","Humidity","Pressure","Direction","Speed","Gust","Precip","PrecipRate"
"00:04:59","45.5","30.2","54.8","30.34","186","2.5","5.8","0.00","0.00"
"00:09:59","45.5","30.5","55.5","30.34","188","3.4","7.2","0.00","0.00"
"00:14:56","45.6","30.3","54.9","30.34","174","4.2","7.2","0.00","0.00"
"00:19:56","45.8","30.4","54.5","30.33","198","3.6","13.2","0.00","0.00"
"00:24:56","46.2","30.4","54","30.33","192","4.9","12","0.00","0.00"
"00:29:56","46.4","30.8","54.4","30.33","190","4.5","9.6","0.00","0.00"
"00:34:56","46.6","31","54.5","30.32","187","4.6","10.8","0.00","0.00"
"00:39:58","46.8","31.4","54.9","30.32","195","5.5","12","0.00","0.00"
"00:44:58","47","31.7","55.1","30.32","190","4.1","13.2","0.00","0.00"
"00:49:58","47.4","32.3","55.6","30.31","207","6.6","16.8","0.00","0.00"
"00:54:59","47.9","33","56.2","30.31","189","6.2","17.3","0.00","0.00"
"00:59:59","48.3","33.4","56.3","30.31","200","6.7","13.2","0.00","0.00"
"01:04:57","48.6","33.6","55.9","30.30","206","7.5","19.6","0.00","0.00"
"01:09:56","48.7","34.5","57.7","30.30","202","6","14.4","0.00","0.00"
"01:14:58","48.4","36","61.9","30.30","197","7.8","20.7","0.00","0.00"
"01:19:58","47.8","37.1","66.3","30.30","201","7.1","16.1","0.00","0.00"
"01:24:57","46.8","37.9","71","30.30","200","5.1","12","0.01","0.01"
"01:29:57","46.1","38.1","73.3","30.30","177","2.9","8.4","0.01","0.01"
"01:34:57","45.6","38.1","74.9","30.30","188","4.1","10.8","0.01","0.01"
"01:39:59","45.3","37.9","75.2","30.30","181","2.5","6.9","0.01","0.01"
"01:44:59","45.2","37.7","74.8","30.30","173","1.9","4.8","0.01","0.01"
"01:49:59","45.3","37.7","74.7","30.28","139","2.1","6","0.01","0.01"
"01:54:55","45.3","37.7","74.5","30.28","158","2.1","7.2","0.01","0.01"
"01:59:58","45.4","37.7","74.4","30.28","136","2.3","5.8","0.01","0.01"
"02:04:57","45.4","37.8","74.7","30.28","204","2.8","6","0.01","0.01"
"02:09:56","45.5","37.9","74.7","30.28","237","3.2","6","0.01","0.01"
"02:14:58","45.6","37.8","74","30.28","230","2.1","7.2","0.01","0.01"
"02:19:58","45.6","37.7","73.8","30.28","197","1.5","6.9","0.01","0.01"
"02:24:58","45.7","37.7","73.5","30.28","214","3.3","7.2","0.01","0.01"
"02:29:58","45.9","37.9","73.5","30.29","205","3.2","6.9","0.01","0.00"
"02:34:58","46","37.9","73.3","30.29","201","3.4","6","0.01","0.00"
"02:39:56","46.1","38.1","73.4","30.29","196","3.7","7.2","0.01","0.00"
"02:44:56","46.3","38.1","73","30.29","177","4.1","10.8","0.01","0.00"
"02:49:56","46.5","38.1","72.5","30.26","155","4.3","10.8","0.01","0.00"
"02:54:56","46.8","38.7","73.2","30.26","181","5.8","13.2","0.01","0.00"
"02:59:59","46.9","39.3","74.8","30.26","186","4.5","8.4","0.01","0.00"
"03:04:59","46.8","39.8","76.4","30.26","186","3.3","7.2","0.01","0.00"
"03:09:58","46.7","39.9","77.2","30.26","194","4.6","14.4","0.01","0.00"
"03:14:59","46.7","40","77.2","30.26","177","6.1","15","0.01","0.00"
"03:19:59","46.9","40.2","77.3","30.25","185","6.1","13.2","0.01","0.00"
"03:24:58","46.9","40.2","77.3","30.25","181","7.2","13.2","0.01","0.00"
"03:29:57","47","40.5","78","30.25","187","6.6","13.2","0.01","0.00"
"03:34:57","47.1","40.5","77.8","30.23","175","7.1","19.2","0.01","0.00"
"03:39:59","47.2","40.7","78","30.23","184","7","19.6","0.01","0.00"
"03:44:58","47.3","40.9","78.2","30.23","179","6.1","14.4","0.01","0.00"
"03:49:58","47.4","40.9","78","30.22","167","6.4","16.1","0.01","0.00"
"03:54:58","47.6","41.2","78.5","30.22","169","6.2","15","0.01","0.00"
"03:59:56","47.7","41.5","79","30.22","182","6.7","17.3","0.01","0.00"
"04:04:58","47.9","41.7","79","30.20","187","7.9","18.4","0.01","0.00"
"04:09:57","48.1","41.9","79","30.20","181","5.5","16.1","0.01","0.00"
"04:14:58","48.2","42","79","30.22","207","6.1","13.2","0.01","0.00"
"04:19:58","48.3","42.1","79","30.22","203","5","14.4","0.01","0.00"
"04:24:56","48.5","42.3","79","30.22","184","5.5","15","0.01","0.00"
"04:29:56","48.6","42.4","79","30.22","177","5.4","13.2","0.01","0.00"
"04:34:59","48.8","42.6","79","30.20","202","5.9","12.7","0.01","0.00"
"04:39:57","48.9","42.7","79","30.20","213","5.5","12","0.01","0.00"
"04:44:56","49","42.8","79","30.20","180","6.2","13.2","0.01","0.00"
"04:49:59","49.1","42.9","79","30.20","188","5.3","10.8","0.01","0.00"
"04:54:58","49.2","43","79","30.20","186","6.8","15","0.01","0.00"
"04:59:57","49.2","43","79","30.20","184","4.8","14.4","0.01","0.00"
"05:04:59","49.4","43.2","79","30.19","175","7.1","15","0.01","0.00"
"05:09:58","49.6","43.4","79","30.19","182","6.2","16.1","0.01","0.00"
"05:14:59","49.7","43.5","79","30.19","172","5.7","15.6","0.01","0.00"
"05:19:58","49.8","43.5","79","30.19","200","5.5","16.1","0.01","0.00"
"05:24:57","49.9","43.6","79","30.19","187","5.3","12","0.01","0.00"
"05:29:58","50","43.5","78.5","30.19","199","5.8","15.6","0.01","0.00"
"05:34:59","50.1","43.8","79","30.19","183","4.6","9.2","0.01","0.00"
"05:39:56","50.1","44.2","79.9","30.19","186","3.4","6.9","0.01","0.00"
"05:44:57","50.1","44.4","80.7","30.19","188","3.6","8.4","0.01","0.00"
"05:49:57","50","44.8","82.1","30.19","200","4.5","12","0.01","0.00"
"05:54:57","50.1","45.1","83.1","30.19","199","4.9","8.4","0.02","0.00"
"05:59:56","50.1","45.5","84","30.20","203","3.9","6.9","0.02","0.01"
"06:04:58","50","45.8","85.1","30.20","244","4.7","9.6","0.02","0.01"
"06:09:58","50.1","46.1","86","30.20","277","3.5","8.4","0.03","0.01"
"06:14:59","50.1","46.1","86","30.24","214","4.4","12","0.04","0.02"
"06:19:56","50","46.1","86.3","30.24","169","3.7","8.4","0.07","0.05"
"06:24:59","49.9","46.4","87.6","30.24","170","5.1","10.8","0.08","0.06"
"06:29:57","49.9","46.7","88.8","30.24","171","5.5","12","0.09","0.08"
"06:34:57","49.7","46.6","89","30.20","189","3.6","10.8","0.09","0.08"
"06:39:58","49.5","46.7","89.9","30.20","181","3.6","10.8","0.10","0.09"
"06:44:57","49.4","46.6","90","30.20","162","4.1","13.2","0.12","0.10"
"06:49:57","49.3","46.7","90.5","30.20","197","3.3","8.1","0.14","0.12"
"06:54:56","49.3","46.8","91","30.20","173","3.1","7.2","0.15","0.13"
"06:59:59","49.3","46.8","91","30.20","161","4.7","15","0.15","0.13"
"07:04:57","49.2","46.8","91.5","30.19","184","3.9","15","0.16","0.13"
"07:09:56","49.2","47","92","30.19","169","4.2","10.8","0.17","0.14"
"07:14:58","49.2","47","92","30.19","158","5.3","17.3","0.17","0.14"
"07:19:58","49.2","47.2","92.6","30.18","180","4.7","9.6","0.17","0.13"
"07:24:58","49.3","47.4","93","30.18","193","4.3","10.8","0.18","0.11"
"07:29:58","49.3","47.4","93","30.18","181","3.6","8.4","0.19","0.10"
"07:34:58","49.3","47.4","93","30.18","183","4.7","12","0.19","0.10"
"07:39:56","49.3","47.4","93","30.18","188","4.8","8.4","0.19","0.10"
"07:44:59","49.4","47.5","93","30.19","194","4.4","12","0.20","0.09"
"07:49:59","49.4","47.5","93","30.19","198","4.3","12","0.21","0.08"
"07:54:59","49.4","47.6","93.7","30.19","198","4.3","13.2","0.22","0.08"
"07:59:58","49.4","47.7","94","30.19","183","4.7","12.7","0.23","0.08"
"08:04:56","49.5","47.8","94","30.19","185","3.8","8.4","0.25","0.09"
"08:09:56","49.5","47.8","94","30.19","144","3.7","8.4","0.25","0.09"
"08:14:57","49.5","47.8","94","30.19","159","4.8","10.8","0.26","0.09"
"08:19:57","49.6","47.9","94","30.19","182","4.5","10.8","0.26","0.09"
"08:24:56","49.6","47.9","94","30.19","155","3","8.4","0.27","0.10"
"08:29:59","49.7","48.2","94.9","30.19","183","4","8.4","0.27","0.09"
"08:34:58","49.8","48.4","95","30.18","184","5.1","12","0.27","0.08"
"08:39:56","49.9","48.5","95","30.18","195","5.1","13.2","0.27","0.08"
"08:44:59","50","48.6","95","30.18","176","4","10.8","0.27","0.08"
"08:49:59","50.2","48.8","95","30.17","196","4","10.8","0.27","0.07"
"08:54:58","50.3","48.9","95","30.17","188","3.5","8.4","0.28","0.07"
"08:59:58","50.3","48.9","95","30.17","182","2.1","6","0.28","0.06"
"09:04:56","50.5","49.1","95","30.16","169","5.1","12","0.28","0.05"
"09:09:59","50.6","49.2","95","30.16","185","5.9","13.2","0.28","0.03"
"09:14:56","50.7","49.3","95","30.16","177","5.5","16.8","0.28","0.03"
"09:19:59","50.8","49.4","95","30.16","168","6.8","17.3","0.28","0.02"
"09:24:58","51","49.6","95","30.16","179","5.8","16.8","0.28","0.02"
"09:29:58","51.1","49.7","95","30.16","178","5.7","13.2","0.28","0.01"
"09:34:57","51.2","49.8","95","30.15","175","4.4","10.8","0.28","0.01"
"09:39:59","51.3","49.9","95","30.15","192","5.1","15","0.28","0.01"
"09:44:58","51.4","50","95","30.15","180","3.6","12","0.28","0.01"
"09:49:58","51.5","50.1","95","30.15","198","6.9","13.2","0.28","0.01"
"09:54:57","51.7","50.3","95","30.15","186","6.1","17.3","0.28","0.01"
"09:59:56","51.7","50.3","95","30.15","189","5.6","12.7","0.28","0.00"
"10:04:58","51.8","50.4","95","30.14","186","7.4","19.6","0.28","0.00"
"10:09:57","51.9","50.5","95","30.14","193","6.4","15.6","0.28","0.00"
"10:14:56","52","50.6","95","30.14","194","8.8","21.9","0.28","0.00"
"10:19:59","52.1","50.5","94.2","30.14","191","7.7","17.3","0.28","0.00"
"10:24:59","52.2","50.5","94","30.14","194","5.7","15","0.28","0.00"
"10:29:58","52.4","50.9","94.5","30.14","190","5.6","15.6","0.28","0.00"
"10:34:58","52.6","50.9","94","30.13","187","7.1","16.1","0.28","0.00"
"10:39:59","52.7","51","94","30.13","197","7.6","19.6","0.28","0.00"
"10:44:59","52.9","51.2","94","30.13","181","6.6","16.1","0.28","0.00"
"10:49:58","53","51.3","94","30.13","202","5.4","15","0.28","0.00"
"10:54:58","53.2","51.5","94","30.13","177","5.3","12","0.28","0.00"
"10:59:57","53.4","51.7","94","30.13","199","7.8","17.3","0.28","0.00"
"11:04:56","53.7","51.9","93.7","30.11","195","6.7","19.6","0.28","0.00"
"11:09:58","54","52","93","30.11","198","6.4","15.6","0.28","0.00"
"11:14:57","54.3","52.3","93","30.11","192","7.8","16.1","0.28","0.00"
"11:19:57","54.8","52.7","92.6","30.11","200","6.5","15","0.28","0.00"
"11:24:56","55.1","52.7","91.5","30.11","202","8.2","18.4","0.28","0.00"
"11:29:56","55.7","53.4","92","30.11","203","8.3","19.6","0.28","0.00"
"11:34:56","56.5","53.7","90.6","30.10","190","8.7","17.3","0.28","0.00"
"11:39:57","56.4","53.2","89","30.10","193","8.7","17.3","0.28","0.00"
"11:44:56","56.1","52.9","89","30.10","197","9.6","19.6","0.28","0.00"
"11:49:56","56","52.8","89","30.09","198","6.4","15","0.28","0.00"
"11:54:59","56","52.8","89","30.09","196","6.4","16.8","0.28","0.00"
"11:59:58","56.1","53","89.2","30.09","189","6","17.3","0.28","0.00"
"12:04:57","56.2","53","89","30.08","197","7.3","15","0.28","0.00"
"12:09:56","56.5","53.1","88.5","30.08","193","6.3","16.1","0.28","0.00"
"12:14:57","56.7","53.3","88.2","30.08","179","7.8","17.3","0.28","0.00"
"12:19:57","57.2","53.6","87.8","30.07","185","8.1","19.6","0.28","0.00"
"12:24:56","57.6","53.8","87","30.07","194","6.5","18.4","0.28","0.00"
"12:29:56","57.9","53.8","86.3","30.07","187","7.2","16.8","0.28","0.00"
"12:34:59","58.1","53.9","86","30.07","193","8.5","17.3","0.28","0.00"
"12:39:57","58.4","54.4","86.5","30.07","197","6.6","14.4","0.28","0.00"
"12:44:57","58.9","54.4","84.9","30.07","193","9.6","24.2","0.28","0.00"
"12:49:56","59","54.4","84.6","30.06","187","7","19.6","0.28","0.00"
"12:54:56","59.1","54.3","84.1","30.06","201","9.8","23","0.28","0.00"
"12:59:59","59.6","54.9","84.4","30.06","186","7.7","16.8","0.28","0.00"
"13:04:57","60.3","55.3","83.4","30.04","205","9.5","21.9","0.28","0.00"
"13:09:56","61.1","55.5","81.8","30.04","194","9.5","16.8","0.28","0.00"
"13:14:59","61.3","55.2","80.3","30.04","191","8.4","22.8","0.28","0.00"
"13:19:59","60.8","54.6","80.1","30.03","202","10.2","23","0.28","0.00"
"13:24:58","60.5","54.6","81","30.03","187","7.1","15","0.28","0.00"
"13:29:58","60.4","54.5","81","30.03","180","6.9","16.1","0.28","0.00"
"13:34:58","60.4","54.6","81.2","30.03","199","8.6","17.3","0.28","0.00"
"13:39:59","60.4","54.5","81","30.03","204","7.9","16.1","0.28","0.00"
"13:44:59","60.4","54.5","81","30.03","198","8.1","18.4","0.28","0.00"
"13:49:59","60.4","54.4","80.8","30.03","187","9.3","19.6","0.28","0.00"
"13:54:58","60.2","54.3","81","30.03","197","7.7","15","0.28","0.00"
"13:59:58","60.3","54.6","81.5","30.03","201","5.6","13.2","0.28","0.00"
"14:04:56","60.3","54.6","81.4","30.03","184","4.4","12","0.28","0.00"
"14:09:59","60.2","54.5","81.3","30.03","194","6.5","17.3","0.28","0.00"
"14:14:56","60.2","54.6","81.5","30.03","199","6.1","16.1","0.28","0.00"
"14:19:56","60.3","54.5","81.3","30.03","207","6.2","12","0.28","0.00"
"14:24:59","60.6","55","81.8","30.03","207","6","17.3","0.28","0.00"
"14:29:59","60.8","54.8","80.7","30.03","195","7.2","15","0.28","0.00"
"14:34:59","60.8","54.6","80","30.02","200","9.7","20.7","0.28","0.00"
"14:39:57","60.7","54.6","80.3","30.02","197","7.2","15","0.28","0.00"
"14:44:56","61.1","55","80.6","30.02","205","6.9","19.2","0.28","0.00"
"14:49:57","61.7","55.2","79.3","30.01","198","7.5","17.3","0.28","0.00"
"14:54:52","62.2","55.5","78.6","30.01","182","6.6","21.9","0.28","0.00"
"14:59:56","62.3","55.3","77.8","30.02","196","9.1","21.9","0.28","0.00"
"15:04:58","62.3","55.2","77.4","30.02","199","8.8","20.7","0.28","0.00"
"15:09:57","62.3","55","77","30.02","193","9.8","20.7","0.28","0.00"
"15:14:59","62.3","55","77","30.02","198","11.4","20.4","0.28","0.00"
"15:19:59","62.2","55.3","77.9","30.02","190","7.7","20.7","0.28","0.00"
"15:24:58","62.5","55.5","78","30.02","189","6.5","15","0.28","0.00"
"15:29:58","62.4","55.1","77","30.03","191","7.9","19.2","0.28","0.00"
"15:34:14","61.8","55","78.1","30.03","195","7.2","16.1","0.28","0.00"
"15:49:59","61.1","54.7","79.5","30.03","183","7.5","19.6","0.28","0.00"
"15:54:56","61","54.7","79.6","30.03","188","7","13.2","0.28","0.00"
"15:59:57","61.1","54.6","79.3","30.03","185","7.3","17.3","0.28","0.00"
"16:04:57","61","54.8","79.8","30.03","201","5.5","10.8","0.28","0.00"
"16:09:56","61","54.7","79.9","30.03","199","6.9","13.2","0.28","0.00"
"16:14:58","60.8","54.6","80","30.04","207","7.6","15","0.28","0.00"
"16:19:58","60.5","54.3","80","30.04","197","5.9","12","0.28","0.00"
"16:24:58","60.3","54.2","80.2","30.04","207","3.9","8.4","0.28","0.00"
"16:29:58","60.2","54.3","81","30.04","217","5.1","8.4","0.28","0.00"
"16:34:58","60","54.2","81","30.04","229","3.5","7.2","0.28","0.00"
"16:39:56","59.9","54.1","81","30.04","208","3.3","7.2","0.28","0.00"
"16:44:56","60","54.2","81","30.07","259","3.8","6","0.28","0.00"
"16:49:56","60.2","54.3","81","30.07","326","5.3","12","0.28","0.00"
"16:54:57","60.2","54.3","81","30.07","320","3.8","8.4","0.28","0.00"
"16:59:58","60.4","54.4","80.8","30.08","331","2.1","6.9","0.28","0.00"
"17:04:57","60.4","54.1","79.5","30.08","287","3.9","10.8","0.28","0.00"
"17:09:59","60.5","53.3","77.2","30.08","334","4.1","9.6","0.28","0.00"
"17:14:58","60.5","51.8","73.1","30.09","338","5.6","16.1","0.28","0.00"
"17:19:59","60.5","50.7","70.1","30.09","304","4.6","13.2","0.28","0.00"
"17:24:59","60.8","49.9","67.2","30.09","244","5.3","18.4","0.28","0.00"
"17:29:59","61","49.3","65.5","30.10","263","4.1","10.8","0.28","0.00"
"17:34:57","60.7","49.2","65.6","30.10","234","2.6","7.2","0.28","0.00"
"17:39:59","60.2","48.6","65.5","30.10","269","3.3","10.8","0.28","0.00"
"17:44:58","59.8","47.3","63.2","30.11","295","2.8","8.4","0.28","0.00"
"17:49:59","59.7","46.8","62.3","30.11","275","2.5","10.8","0.28","0.00"
"17:54:56","59.1","45.7","61.1","30.11","275","3.5","10.8","0.28","0.00"
"17:59:56","58.8","44.8","59.7","30.12","295","4.2","12","0.28","0.00"
"18:04:59","58.9","44.1","57.8","30.12","258","4.6","20.7","0.28","0.00"
"18:09:57","59.3","42.6","53.8","30.12","286","6.9","21.6","0.28","0.00"
"18:14:59","59.5","41.5","51.2","30.12","296","9.2","21.9","0.28","0.00"
"18:19:56","59.5","40.6","49.7","30.12","293","7.4","18.4","0.28","0.00"
"18:24:56","59.2","40.2","49.3","30.12","289","7","19.6","0.28","0.00"
"18:29:56","59","39.5","48.4","30.13","281","6.4","19.6","0.28","0.00"
"18:34:57","58.8","38.8","47.4","30.13","278","6.2","15","0.28","0.00"
"18:39:59","58.7","38.3","46.6","30.13","310","6.8","15.6","0.28","0.00"
"18:44:59","58.5","38","46.4","30.14","320","6.3","16.1","0.28","0.00"
"18:49:56","58.1","38.5","48","30.14","319","6","14.4","0.28","0.00"
"18:54:56","57.6","38.4","48.7","30.14","323","8.9","23","0.28","0.00"
"18:59:56","57.2","37.3","47.3","30.15","322","8.4","17.3","0.28","0.00"
"19:04:58","56.8","35.2","44.3","30.15","326","9","20.7","0.28","0.00"
"19:09:57","56.6","33.9","42.3","30.15","320","6.9","17.3","0.28","0.00"
"19:14:56","56.3","33.2","41.6","30.17","322","6.7","13.2","0.28","0.00"
"19:19:56","56","31.9","39.9","30.17","320","8.6","17.3","0.28","0.00"
"19:24:57","55.9","31.6","39.5","30.17","336","5.8","15","0.28","0.00"
"19:29:57","55.6","31.6","40","30.18","323","6.5","15","0.28","0.00"
"19:34:58","55.3","31.3","39.8","30.18","311","5.3","13.2","0.28","0.00"
"19:39:56","55.1","31.2","40","30.18","321","5.1","13.2","0.28","0.00"
"19:44:56","54.9","31.1","40.2","30.19","321","3.8","10.8","0.28","0.00"
"19:49:57","54.5","31.1","40.7","30.19","318","3.9","8.4","0.28","0.00"
"19:54:57","54.3","30.9","40.7","30.19","317","3.2","8.4","0.28","0.00"
"19:59:58","54","30.8","41","30.20","320","2.7","6","0.28","0.00"
"20:04:56","53.6","30.7","41.3","30.20","335","2.5","10.8","0.28","0.00"
"20:09:59","53.5","31","42.1","30.20","303","4.2","16.1","0.28","0.00"
"20:14:57","53.4","31","42.2","30.21","328","4","12","0.28","0.00"
"20:19:58","53.2","31.2","42.9","30.21","207","2","7.2","0.28","0.00"
"20:24:59","52.9","31.3","43.5","30.21","335","2.3","6","0.28","0.00"
"20:29:59","52.6","31.3","44","30.22","324","1.7","6","0.28","0.00"
"20:34:59","52.2","31.6","45.2","30.22","325","0.3","2.4","0.28","0.00"
"20:39:58","51.8","31.4","45.6","30.22","311","2.4","7.2","0.28","0.00"
"20:44:58","51.4","31.5","46.4","30.22","333","3","6","0.28","0.00"
"20:49:58","51.3","31.8","47.1","30.22","331","2.5","9.6","0.28","0.00"
"20:54:58","51.2","32","47.7","30.22","315","4.2","20.4","0.28","0.00"
"20:59:58","51.2","32.5","48.6","30.23","292","3.6","13.2","0.28","0.00"
"21:04:57","51.2","32.5","48.5","30.23","317","5.6","15","0.28","0.00"
"21:09:56","51.2","32.6","48.8","30.23","333","4.4","15","0.28","0.00"
"21:14:58","51","32.6","49.2","30.23","339","5.1","15.6","0.28","0.00"
"21:19:59","50.8","32.3","49","30.23","356","3.7","12","0.28","0.00"
"21:24:56","50.8","32.5","49.5","30.23","319","5.7","19.6","0.28","0.00"
"21:29:56","50.6","32.4","49.5","30.25","296","3","8.4","0.28","0.00"
"21:34:57","50.3","31.8","49","30.25","284","2.4","7.2","0.28","0.00"
"21:39:59","50.1","30.7","47.1","30.25","295","3.3","15","0.28","0.00"
"21:44:56","49.9","29.8","45.9","30.26","271","3","10.8","0.28","0.00"
"21:49:57","49.6","29","44.7","30.26","304","4.4","12","0.28","0.00"
"21:54:57","49.3","28.4","44.2","30.26","267","2.6","6","0.28","0.00"
"21:59:58","48.8","28.4","45","30.26","284","3.1","6","0.28","0.00"
"22:04:57","48.4","28.2","45.5","30.25","278","2.8","13.2","0.28","0.00"
"22:09:56","48.3","28.8","46.5","30.25","267","4","13.2","0.28","0.00"
"22:14:58","48.1","29.5","48.2","30.25","290","4.3","12.7","0.28","0.00"
"22:19:59","47.9","29.8","49.3","30.25","267","4.7","12","0.28","0.00"
"22:24:56","47.9","30.1","50","30.25","295","3.6","11.5","0.28","0.00"
"22:29:56","47.8","30.2","50.4","30.26","274","3.1","8.4","0.28","0.00"
"22:34:57","47.7","30.6","51.3","30.26","315","2","4.8","0.28","0.00"
"22:39:59","47.5","30.6","51.7","30.26","300","3","8.4","0.28","0.00"
"22:44:56","47.3","30.5","52","30.26","256","2","6","0.28","0.00"
"22:49:57","46.9","30.6","52.8","30.26","284","1.9","10.8","0.28","0.00"
"22:54:58","46.6","30.6","53.5","30.26","290","3.2","10.4","0.28","0.00"
"22:59:59","46.4","30.7","54.1","30.26","302","1.9","7.2","0.28","0.00"
"23:04:57","46.1","30.8","55","30.26","293","1.5","6.9","0.28","0.00"
"23:09:57","45.9","30.8","55.3","30.26","287","1.5","3.6","0.28","0.00"
"23:14:59","45.6","30.7","55.9","30.26","280","1.7","3.6","0.28","0.00"
"23:19:56","45.3","30.8","56.5","30.26","274","1.8","3.6","0.28","0.00"
"23:24:57","45","30.6","56.8","30.26","206","1.7","4.8","0.28","0.00"
"23:29:57","44.6","31","58.5","30.27","165","0.2","2.4","0.28","0.00"
"23:34:58","44.2","30.6","58.5","30.27","165","0","0","0.28","0.00"
"23:39:57","43.8","30.6","59.5","30.27","165","0.7","2.4","0.28","0.00"
"23:44:57","43.4","30.3","59.8","30.27","165","2.4","6","0.28","0.00"
